Thermopolis, WY

10:26 AM MDT on May 27, 2017 (GMT -0600)
Thermopolis

Weather History for KTBX - December, 2011

Change the Weather History Date:

Saturday, December 3, 2011

  Actual Average (KWRL) Record (KWRL)
Temperature  
Mean Temperature 14 °F 21 °F  
Max Temperature 15 °F 34 °F 63 °F (1998)
Min Temperature 12 °F 8 °F -20 °F (1978)
Degree Days  
Heating Degree Days 52 44  
Month to date heating degree days 131  
Since 1 July heating degree days 2023  
Cooling Degree Days 0 0  
Month to date cooling degree days 0  
Year to date cooling degree days 535  
Moisture  
Dew Point 11 °F    
Average Humidity 86    
Maximum Humidity 93    
Minimum Humidity 73    
Precipitation  
Precipitation 0.00 in 0.01 in 0.10 in (1964)
Month to date precipitation 0.03  
Year to date precipitation 7.37  
Sea Level Pressure  
Sea Level Pressure 30.04 in    
Wind  
Wind Speed 6 mph ()    
Max Wind Speed 14 mph    
Max Gust Speed -    
Visibility 10.0 miles    
Events      
T = Trace of Precipitation, MM = Missing Value Source: Averaged Metar Reports

Daily Weather History Graph

Daily Weather History Graph

Search for Another Location

Airport or City:

Trip Planner

Search our weather history database for the weather conditions in past years. The results will help you decide how hot, cold, wet, or windy it might be!

Date:

Astronomy

Dec. 03, 2011 Rise Set
Actual Time 7:27 AM MST 4:37 PM MST
Civil Twilight 6:55 AM MST 5:09 PM MST
Nautical Twilight 6:19 AM MST 5:45 PM MST
Astronomical Twilight 5:45 AM MST 6:19 PM MST
Moon 12:52 PM MST (12/3) 12:49 AM MST (12/3)
Length of Visible Light 10h 13m
Length of Day
9h 09m
Waxing Gibbous, 63% of the Moon is Illuminated
Dec 3
Waxing Gibbous
Dec 10
Full
Dec 17
Last Quarter
Dec 24
New
Dec 31
First Quarter

Hourly Weather History & Observations

Time (MST) Temp. Windchill Dew Point Humidity Pressure Visibility Wind Dir Wind Speed Gust Speed Precip Events Conditions
12:15 AM - - - N/A% 30.05 in 10.0 mi North - - N/A   Overcast
12:35 AM - - - N/A% 30.05 in 10.0 mi North - - N/A   Overcast
12:55 AM - - - N/A% 30.06 in 10.0 mi North - - N/A   Overcast
1:15 AM - - - N/A% 30.06 in 10.0 mi North - - N/A   Overcast
1:35 AM - - - N/A% 30.07 in 10.0 mi North - - N/A   Overcast
1:55 AM - - - N/A% 30.06 in 10.0 mi North - - N/A   Overcast
2:15 AM - - - N/A% 30.06 in 10.0 mi North - - N/A   Overcast
2:35 AM - - - N/A% 30.07 in 10.0 mi North - - N/A   Overcast
2:55 AM - - - N/A% 30.07 in 10.0 mi North - - N/A   Overcast
3:15 AM - - - N/A% 30.07 in 10.0 mi North - - N/A   Overcast
3:35 AM - - - N/A% 30.07 in 10.0 mi North - - N/A   Mostly Cloudy
3:55 AM - - - N/A% 30.07 in 10.0 mi North - - N/A   Overcast
4:15 AM - - - N/A% 30.08 in 10.0 mi North - - N/A   Scattered Clouds
4:35 AM - - - N/A% 30.08 in 10.0 mi North - - N/A   Clear
4:55 AM - - - N/A% 30.08 in 10.0 mi North - - N/A   Clear
5:15 AM - - - N/A% 30.08 in 10.0 mi North - - N/A   Scattered Clouds
5:35 AM - - - N/A% 30.08 in 10.0 mi North - - N/A   Scattered Clouds
5:55 AM - - - N/A% 30.08 in 10.0 mi North - - N/A   Scattered Clouds
6:15 AM - - - N/A% 30.08 in 10.0 mi North - - N/A   Mostly Cloudy
6:35 AM - - - N/A% 30.08 in 10.0 mi North - - N/A   Mostly Cloudy
6:55 AM - - - N/A% 30.09 in 10.0 mi North - - N/A   Scattered Clouds
7:15 AM - - - N/A% 30.09 in 10.0 mi North - - N/A   Clear
7:35 AM - - - N/A% 30.10 in 10.0 mi North - - N/A   Clear
7:55 AM - - - N/A% 30.10 in 10.0 mi North - - N/A   Clear
8:15 AM - - - N/A% 30.10 in 10.0 mi North - - N/A   Clear
8:35 AM - - - N/A% 30.10 in 10.0 mi North - - N/A   Clear
8:55 AM - - - N/A% 30.10 in 10.0 mi North - - N/A   Clear
9:35 AM - - - N/A% 30.10 in 10.0 mi North - - N/A   Clear
9:55 AM - - - N/A% 30.11 in 10.0 mi NNW 9.2 mph - N/A   Clear
10:15 AM - - - N/A% 30.12 in 10.0 mi North - - N/A   Clear
10:35 AM - - - N/A% 30.12 in 10.0 mi North - - N/A   Clear
10:55 AM - - - N/A% 30.11 in 10.0 mi Calm Calm - N/A   Clear
11:15 AM 14.0 °F - 12.2 °F 93% 30.10 in 10.0 mi North - - N/A   Clear
11:35 AM 14.0 °F 8.2 °F 12.2 °F 93% 30.09 in 10.0 mi South 3.5 mph - N/A   Clear
11:55 AM 14.0 °F - 12.2 °F 93% 30.08 in 10.0 mi North - - N/A   Clear
12:15 PM 15.8 °F - 14.0 °F 93% 30.07 in 10.0 mi North - - N/A   Clear
12:35 PM 15.8 °F - 14.0 °F 93% 30.07 in 10.0 mi North - - N/A   Clear
12:55 PM 15.8 °F - 14.0 °F 93% 30.05 in 10.0 mi North - - N/A   Clear
1:15 PM 15.8 °F - 12.2 °F 86% 30.05 in 10.0 mi North - - N/A   Clear
1:35 PM 14.0 °F - 12.2 °F 93% 30.03 in 10.0 mi North - - N/A   Clear
1:55 PM 14.0 °F - 10.4 °F 86% 30.02 in 10.0 mi North - - N/A   Clear
2:15 PM 14.0 °F - 10.4 °F 86% 30.01 in 10.0 mi North - - N/A   Clear
2:35 PM 15.8 °F - 12.2 °F 86% 29.99 in 10.0 mi North - - N/A   Clear
2:55 PM 15.8 °F - 12.2 °F 86% 29.99 in 10.0 mi North - - N/A   Clear
3:15 PM 15.8 °F - 12.2 °F 86% 29.99 in 10.0 mi North - - N/A   Clear
3:35 PM 15.8 °F - 10.4 °F 79% 29.99 in 10.0 mi North - - N/A   Clear
3:55 PM 15.8 °F - 10.4 °F 79% 29.98 in 10.0 mi North - - N/A   Clear
4:15 PM 14.0 °F - 10.4 °F 86% 29.96 in 10.0 mi North - - N/A   Clear
4:35 PM 14.0 °F - 10.4 °F 86% 29.96 in 10.0 mi North - - N/A   Scattered Clouds
4:55 PM 14.0 °F -0.8 °F 10.4 °F 86% 29.97 in 10.0 mi SSE 13.8 mph - N/A   Clear
5:15 PM 14.0 °F 0.5 °F 10.4 °F 86% 29.98 in 10.0 mi SSE 11.5 mph - N/A   Scattered Clouds
5:35 PM 12.2 °F - 10.4 °F 92% 29.97 in 10.0 mi North - - N/A   Scattered Clouds
5:55 PM 12.2 °F - 10.4 °F 92% 29.97 in 10.0 mi North - - N/A   Mostly Cloudy
6:15 PM 12.2 °F -1.0 °F 10.4 °F 92% 29.97 in 10.0 mi SSE 10.4 mph - N/A   Overcast
6:35 PM 12.2 °F -0.2 °F 10.4 °F 92% 29.98 in 10.0 mi SE 9.2 mph - N/A   Overcast
6:55 PM 12.2 °F 2.9 °F 10.4 °F 92% 29.99 in 10.0 mi SSE 5.8 mph - N/A   Overcast
7:15 PM 14.0 °F - 10.4 °F 86% 29.99 in 10.0 mi North - - N/A   Overcast
7:35 PM 14.0 °F - 8.6 °F 79% 29.99 in 10.0 mi North - - N/A   Overcast
7:55 PM 14.0 °F - 6.8 °F 73% 29.99 in 10.0 mi North - - N/A   Overcast
8:15 PM 14.0 °F - 6.8 °F 73% 30.00 in 10.0 mi North - - N/A   Overcast
8:35 PM 14.0 °F - 8.6 °F 79% 30.00 in 10.0 mi North - - N/A   Overcast
8:55 PM 14.0 °F - 10.4 °F 86% 30.00 in 10.0 mi North - - N/A   Overcast
9:15 PM 14.0 °F - 10.4 °F 86% 29.99 in 10.0 mi North - - N/A   Overcast
9:35 PM 14.0 °F - 10.4 °F 86% 29.99 in 10.0 mi North - - N/A   Overcast
10:15 PM 14.0 °F - 8.6 °F 79% 30.00 in 10.0 mi North - - N/A   Scattered Clouds
10:35 PM 12.2 °F - 8.6 °F 85% 30.00 in 10.0 mi North - - N/A   Mostly Cloudy
10:55 PM 12.2 °F - 8.6 °F 85% 30.00 in 10.0 mi North - - N/A   Scattered Clouds
11:15 PM 14.0 °F - 10.4 °F 86% 30.00 in 10.0 mi North - - N/A   Mostly Cloudy
11:35 PM 14.0 °F - 10.4 °F 86% 30.00 in 10.0 mi North - - N/A   Overcast
11:55 PM 14.0 °F - 10.4 °F 86% 30.00 in 10.0 mi North - - N/A   Overcast